Кангалассы

Россия / Республика Саха (Якутия)     62°20′53″N   129°58′12″E
темп.,
°C
ветер,
м/с
пор.,
м/с
влажн.,
%
обл.,
%
осадки,
мм/ч
давл.,
гПа
погр.,
м
1 марта, пн
пн100:00−26з3798100 0.3 1024434
03:00−26з3895100 0.4 1024516
06:00−27з3895100 0.1 1024544
09:00−26з4792100 0.2 1025709
12:00−25зсз4688100 0.1 1025853
15:00−25зсз4687100 0.2 1025921
18:00−26зсз3695100 0.1 1026280
21:00−27зсз3695100 0.1 1026310
2 марта, вт
вт200:00−28зсз2396100 0.1 102673
03:00−29з2496100 0.1 102694
06:00−30з2296100 0.1 102651
09:00−31з249599 0.1 1026129
12:00−28з2388100 0.0 1026434
15:00−27з2387100 0.0 1025551
18:00−30з1195100 0.0 102519
21:00−31зсз1194100 0.0 102519
3 марта, ср
ср300:00−32зсз119598 0.0 102519
03:00−32зсз119699 0.0 102419
06:00−32зсз1197100 0.0 102319
09:00−31зсз1296100 0.1 1022138
12:00−29зсз2289100 0.1 1021430
15:00−28сз2389100 0.1 1019550
18:00−29сз2296100 0.1 101947
21:00−30зсз2596100 0.1 1019189
4 марта, чт
чт400:00−31зсз2697100 0.1 1018223
03:00−32з2696100 0.1 1018280
06:00−32з3795100 0.1 1017377
09:00−31з4790100 0.1 1017629
12:00−29з4685100 0.1 1018843
15:00−28зсз4584100 0.1 1018937
18:00−31зсз3391100 0.0 102059
21:00−35зсз359387 0.0 102178
5 марта, пт
пт500:00−36з349338 0.0 102252
03:00−37з349253 0.0 102366
06:00−38з349284 0.0 102375
09:00−35зсз389079 0.0 1024381
12:00−31зсз478695 0.0 1024541
15:00−29зсз488997 0.0 1024584
18:00−31зсз4991100 0.0 1025245
21:00−32зсз41091100 0.0 1025349